[Date Prev][Date Next][Thread Prev][Thread Next] - [Date Index][Thread Index][Author Index]
2 Line ISS Keps 7-29
- Subject: [sarex] 2 Line ISS Keps 7-29
- From: "Dave Larsen PhD" <doc@xxxxxxxxxxx>
- Date: Sun, 29 Jul 2001 01:07:51 -0700
ISS
1 25544U 98067A 01210.13629080 .00013945 00000-0 19008-3 0 2720
2 25544 51.6397 236.7011 0011352 311.0779 152.8928 15.57754080153638
----
Via the sarex mailing list at AMSAT.ORG courtesy of AMSAT-NA.
To unsubscribe, send "unsubscribe sarex" to Majordomo@amsat.org
AMSAT Home